Location: Lecco
(45.8566°N, 9.3977°E)
Time: 12:08:54
(UTC+02:00)

Vanguard 2 Rocket - Pass Details

Date: 21 August 2020
Orbit: 554 x 3326 km, 32.9° (Epoch: 24 September)

Event Time Altitude Azimuth Distance (km) Brightness Sun altitude
Rises 16:34:15 0° 228° (SW) 2,714 10.2 37.6°
Reaches altitude 10° 16:37:07 10° 203° (SSW) 1,887 9.3 37.1°
Maximum altitude 16:39:34 15° 166° (SSE) 1,693 8.6 36.8°
Drops below altitude 10° 16:42:23 10° 130° (SE) 2,223 8.8 36.3°
Sets 16:46:15 0° 109° (ESE) 3,537 9.6 35.7°
